ECMWFNIL_850_spd_000.txt.gz
Wind_Speed
16 17 17 14 14 14 15 17 17 16 17 17 16 15 14 13 12 11 10 9 9 8 8 8 8 8 8 8 7 7 6 5 5 5 4 3 3 3 2 1 1 0
18 20 21 17 16 16 16 18 19 19 19 18 16 16 14 13 12 11 11 10 9 8 8 8 8 9 8 7 6 5 5 5 5 5 5 4 4 4 4 3 2 1
20 23 26 20 18 19 17 18 19 19 18 17 16 15 14 13 12 11 11 10 9 8 8 7 8 8 7 6 5 4 5 5 5 5 5 5 5 5 5 4 4 3
21 23 28 23 18 19 19 19 19 18 17 17 15 14 13 12 11 10 10 9 8 8 7 7 6 6 6 5 4 4 5 5 5 5 5 5 5 5 4 4 4 3
23 21 28 27 20 19 21 20 19 18 17 16 14 13 13 12 10 9 8 8 7 7 7 6 5 5 4 4 4 3 3 4 4 4 3 3 3 3 3 3 3 2
27 22 29 32 23 20 21 20 20 19 18 15 14 12 11 11 9 7 7 6 6 5 5 4 4 3 2 2 2 2 2 2 3 2 2 2 1 0 0 0 0 0
30 24 28 33 28 22 22 21 21 21 19 17 14 11 10 10 8 7 6 6 5 4 4 4 4 4 3 3 3 3 3 3 4 4 3 2 3 3 3 3 3 3
31 27 28 33 32 27 24 23 24 23 21 19 16 13 10 9 8 7 6 5 4 3 3 4 4 4 3 3 4 4 5 6 7 7 6 6 6 5 5 5 6 6
31 29 29 32 32 30 29 29 28 27 25 22 18 15 11 10 9 8 8 7 5 5 4 4 2 0 1 3 4 4 5 6 8 9 9 9 9 9 8 8 8 8
33 31 31 32 31 30 32 32 30 29 27 24 20 16 14 12 11 11 10 9 8 7 6 5 3 3 5 7 7 7 7 8 9 10 10 11 10 11 11 11 11 11
30 29 30 31 31 30 29 28 29 29 26 23 21 18 16 15 15 14 13 12 10 9 8 7 6 7 10 13 13 13 12 11 11 12 13 13 12 12 13 13 13 13
25 24 26 29 30 31 28 25 28 30 26 23 22 22 20 18 17 16 15 13 11 11 10 10 11 13 15 16 16 17 17 15 14 15 16 17 16 15 15 14 14 14
24 24 26 26 28 30 27 24 25 24 22 21 22 23 24 22 20 18 16 14 13 13 14 15 15 16 18 19 18 17 17 17 16 17 19 20 20 19 18 17 16 16
26 26 27 27 26 24 20 21 22 20 17 17 18 22 24 20 18 16 14 14 15 15 17 17 16 18 21 22 20 17 17 17 18 20 22 23 24 23 21 20 19 19
22 23 26 28 26 21 16 19 22 20 19 18 15 16 17 15 15 14 13 14 16 17 18 18 19 21 22 20 18 17 17 19 20 23 24 24 26 27 25 23 22 22
19 20 22 23 23 20 20 23 23 21 22 21 18 15 14 14 15 14 14 16 17 18 19 20 21 22 21 19 19 19 20 22 24 26 26 26 27 29 29 27 25 25
22 21 21 21 20 19 21 21 20 20 21 19 18 16 14 12 11 12 13 15 16 16 17 17 18 19 19 20 21 21 21 22 24 27 28 29 29 30 32 31 28 28
23 21 21 20 18 18 20 19 19 20 18 15 13 13 13 12 11 11 12 13 13 14 14 14 15 17 18 20 20 21 21 22 24 25 28 29 30 30 32 32 30 30
16 17 18 19 18 19 19 17 15 16 16 15 14 13 12 11 11 11 12 12 12 13 15 16 17 17 18 20 21 21 22 23 23 24 26 28 30 31 33 32 32 32
18 20 21 22 21 18 15 12 12 13 13 13 12 11 10 9 10 11 11 12 12 13 15 16 17 18 19 20 22 24 25 24 24 24 25 26 28 31 33 33 33 33
18 19 19 19 18 16 14 13 13 13 13 13 12 11 10 10 10 11 11 12 12 14 15 16 16 17 18 19 21 23 24 24 22 22 23 22 25 30 33 32 31 31
16 17 17 17 17 16 15 14 13 14 14 14 15 14 13 13 12 11 12 12 13 14 15 16 16 15 15 17 18 19 19 18 17 17 17 18 22 28 29 28 27 29
14 14 14 14 15 13 11 10 11 11 11 12 12 11 11 10 10 9 9 10 12 13 14 14 15 15 15 15 15 16 16 16 15 13 13 15 19 23 25 26 27 30
13 13 12 12 12 10 8 7 7 7 8 9 9 9 9 8 8 8 10 12 12 13 14 15 16 17 16 14 13 14 14 14 13 12 12 14 16 19 22 24 25 26
12 12 11 10 10 9 8 7 6 6 7 8 8 8 9 10 10 10 11 13 14 15 16 17 18 18 18 16 15 14 13 12 12 12 12 14 16 19 22 24 24 23
10 10 9 9 9 9 9 8 8 9 9 9 8 7 9 10 11 12 13 13 14 17 18 19 20 20 19 19 17 16 15 14 13 13 14 15 17 19 21 23 24 24

ECMWFNIL_850_spd_003.txt.gz
Wind_Speed
14 10 6 8 8 7 8 8 10 11 12 12 12 12 13 13 12 12 12 11 11 12 12 11 11 11 11 11 10 10 9 7 7 7 6 5 4 4 4 3 3 3
18 12 7 11 13 9 8 10 13 14 14 14 14 14 15 15 15 14 14 14 13 13 13 12 11 10 10 10 9 8 8 8 8 8 7 6 6 6 6 6 5 5
20 15 9 11 15 12 10 13 15 15 15 15 15 15 16 16 16 16 15 15 15 14 14 13 12 11 10 11 10 9 9 9 9 9 9 8 8 8 7 7 6 6
21 18 15 14 16 15 13 15 17 17 16 16 15 15 15 15 15 16 15 15 15 15 14 13 12 12 11 11 11 10 10 10 9 9 9 9 9 8 7 7 6 6
24 20 21 21 19 18 17 17 19 19 17 16 16 15 15 14 14 14 14 14 14 14 14 13 13 12 11 11 10 10 10 9 8 8 7 7 7 6 6 5 5 5
25 22 26 26 24 23 21 19 19 20 18 16 16 15 14 14 13 12 12 12 12 12 11 12 12 11 10 9 9 8 8 8 7 6 5 5 4 3 3 2 2 2
26 25 29 29 27 27 25 21 20 20 19 17 15 14 13 13 11 10 10 10 10 9 9 9 9 10 10 9 8 8 7 7 6 6 5 4 3 1 0 0 1 1
28 27 30 31 30 30 28 25 22 20 19 19 17 15 12 11 10 9 9 9 8 8 8 8 8 8 8 8 7 7 6 6 6 6 5 4 4 3 2 2 2 3
27 28 32 33 32 31 32 31 27 22 20 20 21 18 15 13 11 9 8 8 7 7 7 7 7 6 6 5 4 4 5 6 6 6 6 5 4 3 2 2 2 4
28 30 33 34 33 32 33 34 32 27 24 23 24 24 21 17 14 12 10 8 8 7 6 5 4 3 3 3 4 5 5 4 4 4 5 4 4 3 2 1 2 3
31 32 34 34 33 32 32 33 34 32 28 28 30 30 27 20 14 15 16 13 10 9 7 5 6 6 7 8 8 7 7 7 6 6 5 5 4 3 3 3 3 3
32 32 32 31 32 33 31 31 35 36 32 30 32 33 31 25 18 19 22 20 15 12 10 9 9 10 11 11 11 10 10 11 11 10 9 8 8 7 7 6 6 6
30 29 27 28 31 32 29 28 32 36 35 32 32 33 32 26 20 21 24 21 17 14 13 13 13 13 13 13 13 13 14 16 16 14 12 12 12 12 12 10 9 9
28 25 23 25 27 27 27 27 27 29 30 28 25 27 29 24 20 22 24 21 17 15 15 16 15 15 15 15 15 16 17 19 18 16 15 15 15 16 15 15 13 13
27 24 25 29 28 26 28 29 27 25 25 25 23 22 25 24 21 23 25 23 20 19 18 16 14 15 16 16 16 17 19 20 18 17 17 18 19 19 18 17 16 16
21 23 28 31 29 27 27 26 26 26 26 30 30 27 26 25 22 23 25 23 20 20 19 17 16 17 18 18 19 21 22 21 19 19 21 21 20 20 19 19 19 18
21 25 28 26 24 25 24 22 24 25 24 25 26 24 25 24 21 21 22 20 19 18 17 17 18 19 20 21 21 21 21 20 20 21 22 21 21 21 21 20 20 20
22 26 28 24 21 22 22 19 21 22 21 21 22 21 22 21 19 19 19 18 19 18 16 17 18 19 20 20 20 19 20 20 21 21 21 21 22 22 22 22 21 20
19 22 23 21 19 18 17 15 17 18 18 19 19 18 18 18 16 16 15 14 16 17 17 17 17 17 18 18 19 19 21 22 22 23 23 24 23 23 22 22 21 20
19 20 19 18 16 15 14 14 15 16 16 17 16 15 15 15 15 13 11 11 12 15 15 15 15 15 16 17 18 19 21 22 23 23 24 25 25 23 22 21 20 18
13 16 16 14 13 13 14 15 15 16 17 16 14 13 13 13 12 11 11 12 13 13 13 13 13 14 14 14 15 16 18 19 19 19 19 20 21 20 19 19 17 15
6 9 10 11 13 14 15 16 17 17 18 17 15 14 13 13 13 12 12 12 12 11 11 11 11 11 11 11 12 13 13 14 14 13 14 14 15 16 16 16 15 13
7 9 11 12 14 15 16 17 17 17 17 16 15 15 13 13 12 12 12 11 10 8 8 8 9 10 11 12 12 12 12 13 13 13 13 13 13 13 13 13 12 12
9 11 12 13 14 14 14 15 15 15 16 16 15 14 13 13 12 12 11 9 7 7 7 9 10 12 13 14 15 15 15 15 15 15 15 15 14 13 13 12 11 11
11 13 13 14 14 14 13 13 13 13 13 13 13 13 13 12 11 11 9 8 7 7 9 10 11 13 14 16 17 17 17 17 17 17 17 16 15 13 12 11 11 12
8 13 15 15 15 14 13 13 12 11 10 10 10 10 10 10 10 9 8 8 8 9 10 11 13 14 15 17 17 17 17 17 17 17 16 15 14 12 11 11 12 13

ECMWFNIL_850_spd_006.txt.gz
Wind_Speed
12 8 3 1 1 1 2 4 3 1 3 4 6 7 9 9 10 10 10 10 10 10 11 11 11 11 11 11 11 10 10 9 10 10 9 9 9 9 9 10 11 11
15 10 5 5 4 2 1 2 1 2 4 6 7 8 9 10 10 10 10 10 11 11 10 10 10 10 11 11 11 11 11 10 11 12 11 11 11 11 11 12 13 13
18 13 9 9 8 6 2 2 3 5 6 8 9 9 10 10 10 10 10 10 10 11 11 11 11 11 11 12 12 12 13 13 14 14 13 13 13 13 13 13 13 13
20 17 12 9 10 10 8 6 7 9 9 9 9 9 10 10 11 11 11 10 10 10 11 11 11 11 12 12 12 13 13 13 14 13 13 13 13 12 12 12 12 12
25 23 19 13 14 15 12 9 9 10 10 10 10 10 10 10 10 11 11 11 11 10 10 10 10 10 11 11 11 11 12 12 12 12 11 10 11 10 9 9 9 9
29 27 25 20 18 18 15 11 11 11 11 11 10 10 9 9 9 9 10 10 10 10 9 9 9 9 10 10 9 9 9 9 8 9 8 7 8 7 7 6 6 5
24 22 25 24 20 20 17 13 13 13 13 13 11 11 10 9 9 8 8 8 7 7 7 7 7 7 8 8 8 7 6 5 5 5 5 5 5 4 4 4 3 3
20 17 25 30 23 21 20 16 16 14 15 15 12 11 11 10 10 8 7 7 6 6 6 5 5 5 5 6 6 5 4 3 3 2 2 2 3 2 2 2 2 2
22 17 23 32 28 23 22 20 19 18 17 18 15 13 12 11 11 10 9 9 7 7 6 6 6 5 4 4 4 3 2 1 1 1 1 2 2 2 2 2 2 2
24 18 22 32 30 24 23 23 22 21 21 21 20 18 16 15 14 13 12 11 10 9 8 8 8 7 5 4 3 2 1 1 1 2 1 0 1 1 2 2 3 4
27 23 23 30 28 22 23 26 27 25 24 25 25 23 21 19 18 15 14 13 12 10 9 8 7 6 4 3 4 4 3 2 2 4 5 4 3 2 2 3 4 5
32 28 26 29 29 26 27 30 30 28 25 26 27 27 25 24 23 21 18 16 14 12 10 8 7 5 3 4 6 7 7 6 5 6 7 8 7 6 5 5 5 6
34 33 31 31 32 31 30 30 30 29 27 24 26 29 29 28 27 25 22 19 16 14 13 11 10 10 9 7 8 9 10 11 11 9 9 10 10 10 9 9 9 9
32 34 34 34 33 30 29 29 30 28 26 24 26 30 32 31 30 28 25 21 16 13 15 16 14 13 12 11 11 13 15 16 15 13 12 12 11 11 11 12 12 12
26 29 31 33 32 28 26 28 31 30 25 23 25 29 31 31 30 28 25 22 17 14 16 17 13 10 12 13 13 15 17 18 17 16 16 15 13 12 13 13 14 14
20 22 25 28 30 28 26 26 30 31 28 24 25 28 30 31 28 25 25 27 27 20 15 14 12 11 14 16 17 18 18 18 18 18 18 17 15 15 15 15 15 15
16 17 18 20 23 24 24 25 25 25 24 23 24 27 28 28 26 22 20 25 26 20 16 15 15 16 16 18 19 19 19 19 18 17 16 15 15 16 16 15 15 15
13 14 15 18 21 21 21 21 20 19 20 21 22 25 25 23 21 18 17 21 22 21 20 19 17 17 18 19 18 17 17 17 16 15 15 15 15 15 15 16 16 16
12 14 16 19 20 19 18 18 19 20 21 21 20 22 23 21 18 16 18 20 21 21 22 20 18 19 19 16 15 15 15 16 16 16 16 15 14 14 13 14 14 15
13 15 18 19 18 18 16 16 18 22 22 20 19 20 21 18 15 15 17 18 19 18 18 18 18 17 15 12 12 13 14 14 14 13 11 11 10 10 10 10 10 11
13 14 16 17 18 18 16 15 18 21 20 18 18 18 17 16 15 15 16 17 17 16 15 14 13 13 11 10 10 10 9 9 8 8 9 9 9 9 9 9 9 9
10 13 15 17 18 18 17 17 19 20 18 16 16 15 15 15 15 16 16 16 16 14 13 12 11 10 10 9 7 6 6 7 7 8 8 9 9 10 10 10 10 9
5 7 11 14 17 17 18 18 18 17 16 16 16 17 17 16 16 17 17 16 15 14 12 11 9 8 7 5 4 5 7 8 8 8 9 9 9 9 9 10 10 9
5 4 4 6 8 10 12 14 14 15 15 16 17 17 18 17 17 18 17 15 14 12 11 9 7 6 4 4 5 7 9 10 10 11 11 11 11 11 10 10 10 9
5 5 5 6 6 7 9 11 12 13 14 15 16 17 17 18 17 16 16 14 13 11 9 7 5 4 4 5 7 9 10 11 11 12 13 13 13 13 12 12 10 9
6 6 8 8 6 5 7 9 10 12 14 14 15 16 16 16 16 16 15 14 12 10 7 5 5 5 6 7 9 11 12 12 12 13 13 13 14 13 12 11 10 9

ECMWFNIL_850_spd_009.txt.gz
Wind_Speed
8 8 7 6 5 5 6 7 6 6 6 6 8 9 10 9 9 9 10 11 11 11 12 12 12 12 12 13 12 12 13 12 13 13 12 12 12 12 13 14 14 15
12 11 9 9 8 7 7 6 5 6 5 5 7 9 9 9 9 9 9 9 10 10 11 11 11 11 11 12 12 11 12 12 13 13 13 12 13 14 15 16 16 16
14 12 11 11 10 8 7 7 6 5 4 4 6 8 8 9 8 8 8 8 8 9 9 10 10 10 10 10 10 10 11 12 13 14 13 13 14 15 16 17 16 16
14 10 10 12 12 8 7 8 6 4 2 2 5 6 7 8 8 8 8 7 8 8 8 9 9 10 10 10 10 10 11 13 14 14 14 14 14 15 15 15 15 14
22 18 15 15 17 14 6 6 6 4 4 4 4 6 7 8 8 8 8 8 8 8 8 8 9 10 10 10 10 10 11 12 13 13 13 13 13 13 13 13 12 12
24 19 18 18 20 19 12 9 9 6 6 5 5 5 6 7 8 8 8 8 8 8 7 8 8 9 9 9 9 9 10 10 10 10 10 9 10 9 10 10 9 9
20 14 16 20 21 19 16 18 14 8 7 7 5 6 5 6 7 7 7 7 7 7 7 7 7 8 8 9 9 8 8 8 8 8 7 7 7 6 6 6 6 6
18 12 12 19 21 18 19 23 16 9 9 9 7 8 7 7 8 7 8 8 7 8 7 7 7 7 8 8 8 7 7 7 7 7 6 6 5 5 4 4 4 5
18 13 11 16 20 18 22 24 16 10 11 11 10 10 9 9 9 8 9 9 9 9 8 7 6 6 6 6 6 6 6 6 5 5 5 5 4 4 4 3 3 3
19 15 12 14 17 20 24 25 19 14 13 13 13 13 12 11 10 9 10 10 9 9 8 7 6 4 4 4 4 5 4 4 3 2 2 3 2 2 2 2 2 2
19 16 13 13 15 21 27 27 23 18 15 15 16 16 15 14 12 12 11 11 11 10 9 8 6 5 5 5 5 5 5 4 3 2 1 1 1 2 2 1 1 2
18 17 14 13 14 20 27 28 25 21 18 18 18 19 19 18 17 15 14 13 13 12 11 9 7 8 8 6 5 6 7 6 5 4 4 3 4 5 6 6 5 5
18 17 15 14 15 19 23 26 26 24 21 20 19 20 21 22 22 21 19 17 16 15 14 12 11 11 10 8 6 7 8 7 7 8 7 7 7 8 9 9 9 9
17 18 16 15 16 18 20 22 24 24 23 21 19 18 20 23 25 25 24 22 21 20 19 17 15 14 13 11 9 8 7 7 9 10 11 11 10 10 11 11 12 12
15 18 18 17 18 20 21 22 23 23 24 24 23 21 21 24 25 26 26 26 25 24 23 21 19 16 13 11 9 7 7 8 9 9 10 12 12 13 14 13 13 13
12 16 17 19 20 23 25 26 26 25 26 27 27 24 22 22 22 23 25 26 25 25 26 25 24 20 16 14 11 9 9 10 10 10 11 13 14 14 14 13 13 14
7 10 13 16 20 23 26 28 29 29 28 28 26 23 22 21 20 22 24 23 20 23 29 30 27 23 20 19 15 11 12 12 12 12 13 13 13 14 13 13 14 14
5 7 9 11 14 17 20 23 26 29 29 29 28 27 27 26 24 23 23 20 17 19 25 28 25 19 18 18 13 11 12 12 12 12 13 13 14 14 14 14 14 15
7 8 9 10 11 14 17 20 23 24 24 25 26 27 26 25 25 24 21 19 16 15 18 22 22 20 19 15 13 12 12 12 12 12 13 13 12 12 11 11 12 13
10 10 10 11 12 14 16 18 20 20 20 20 21 22 22 22 23 21 18 17 16 13 14 18 21 22 19 16 13 12 11 11 10 10 9 8 7 6 6 6 7 8
11 11 10 11 12 14 15 18 19 20 20 19 19 20 20 21 20 19 17 18 19 18 17 18 20 19 17 14 13 12 10 8 7 7 6 5 3 3 3 3 3 4
9 10 10 11 12 12 14 17 19 20 20 21 22 22 21 20 20 19 17 18 20 20 19 19 19 17 15 14 14 12 10 7 6 6 5 4 3 2 3 3 3 4
7 8 8 10 12 13 14 16 18 19 21 22 23 22 21 21 21 20 18 17 17 18 18 19 18 17 17 16 14 13 10 7 5 4 4 3 4 4 5 5 6 6
5 5 5 6 9 11 15 17 19 20 22 21 21 22 22 21 20 19 18 18 17 18 19 19 19 18 17 16 14 11 8 6 4 4 4 5 6 6 7 8 8 9
7 6 4 4 5 6 10 14 17 20 20 18 19 21 20 18 17 17 17 17 17 18 19 19 19 18 16 15 12 9 7 5 4 4 5 6 8 8 9 9 10 9
10 9 7 6 5 5 6 8 10 12 14 14 16 18 19 18 17 18 18 17 17 17 19 19 18 16 15 13 10 8 6 5 4 5 6 7 8 8 9 9 9 9

ECMWFNIL_850_spd_012.txt.gz
Wind_Speed
11 9 8 10 11 11 11 10 11 11 11 10 11 12 12 13 13 13 13 12 12 11 11 11 10 10 8 7 7 8 8 9 10 10 11 11 11 11 11 11 11 11
13 11 11 11 11 11 10 10 10 11 11 11 12 14 14 14 14 14 14 14 13 12 12 12 12 12 10 10 10 9 10 11 12 12 12 12 13 13 14 14 14 14
16 14 13 11 10 10 9 9 10 11 11 11 12 14 15 14 14 13 13 13 12 12 12 12 12 12 11 11 11 11 11 12 13 13 13 13 14 15 15 15 15 15
17 16 14 11 9 9 10 9 9 10 11 11 10 11 12 13 13 12 11 11 11 11 11 11 12 12 12 11 11 11 12 13 14 14 14 15 16 16 17 16 16 15
19 18 15 11 10 9 8 9 7 7 10 10 8 8 9 11 11 11 10 10 10 9 10 11 12 12 13 13 12 12 13 14 14 14 14 15 16 16 17 16 16 16
21 21 18 13 12 12 9 8 7 7 9 10 8 7 7 8 9 9 9 9 9 9 9 10 12 13 14 13 13 13 13 13 13 13 13 13 13 14 14 14 13 13
24 24 22 17 14 15 12 10 9 9 9 10 9 7 6 7 8 8 9 9 9 9 9 10 10 12 13 13 12 13 13 13 13 12 10 10 10 10 10 10 9 9
23 24 22 18 15 16 17 14 12 12 11 10 9 8 8 7 7 8 9 10 10 9 9 9 10 11 13 12 11 12 12 12 12 10 8 8 9 8 7 8 8 7
20 21 20 17 15 17 19 18 17 15 12 11 10 9 9 8 7 8 9 10 11 11 10 10 10 11 12 12 12 11 10 11 11 9 7 7 7 6 6 6 6 6
15 17 18 16 14 17 19 18 19 17 13 12 12 10 9 9 8 9 10 10 11 11 11 11 11 11 12 12 12 12 10 10 10 9 8 6 5 5 5 4 4 5
12 14 17 15 12 15 19 18 20 20 15 13 13 12 11 10 9 10 10 11 11 11 11 11 11 11 11 10 10 10 10 9 8 8 7 6 5 5 5 5 4 4
12 13 15 14 11 12 17 19 22 24 20 15 14 14 14 13 12 11 11 12 12 11 11 12 11 11 11 10 9 8 7 7 7 7 6 5 4 4 5 5 5 5
12 13 13 13 12 12 14 17 20 23 24 21 17 15 15 16 15 15 14 14 13 12 12 13 13 14 14 12 10 8 7 7 8 7 6 5 6 6 6 6 7 8
11 13 13 13 14 15 14 15 17 20 23 25 23 19 17 16 17 18 18 17 17 16 15 16 16 16 17 15 13 12 11 10 10 9 7 7 7 8 8 8 9 10
9 12 13 14 16 17 16 16 17 17 19 22 24 22 19 16 16 18 20 20 21 21 20 18 17 17 18 18 16 14 13 13 11 11 10 9 8 8 9 10 10 11
8 10 12 14 16 18 18 18 18 17 17 18 20 22 22 19 17 18 19 20 22 23 24 23 22 21 21 22 21 18 16 12 9 8 8 8 8 9 9 10 10 10
6 8 10 12 14 16 17 18 18 19 19 20 21 23 25 24 21 20 20 22 22 21 21 23 24 26 26 26 26 22 17 13 11 10 8 6 7 9 9 9 9 9
4 5 7 9 11 12 14 16 18 20 21 23 25 26 26 25 24 22 22 23 21 18 18 19 21 25 28 29 29 28 25 23 22 19 15 11 10 10 11 11 11 11
3 4 6 7 9 10 11 12 13 16 18 21 24 26 27 26 25 23 23 23 22 21 21 21 21 23 26 29 29 29 28 26 23 19 16 14 12 12 13 13 13 13
1 3 5 7 8 10 10 10 12 13 15 16 18 21 23 25 25 25 25 25 25 25 23 22 23 23 23 24 23 23 23 21 18 15 14 12 12 12 11 11 10 10
4 3 4 5 8 10 10 11 12 12 13 14 14 16 18 20 21 24 25 25 24 24 21 21 23 23 20 19 20 21 20 16 14 13 12 11 11 10 9 9 8 8
7 6 5 5 6 9 10 11 11 12 13 14 14 15 15 16 18 19 20 21 21 22 21 21 22 21 20 22 24 23 19 15 14 13 12 12 11 10 9 9 7 6
7 7 8 7 7 8 10 12 11 13 14 14 15 16 16 17 18 18 18 19 19 21 22 21 22 22 23 24 24 24 21 17 16 14 13 13 12 10 9 7 5 4
8 7 8 9 8 9 10 12 12 14 16 16 17 18 17 18 20 21 21 21 21 24 24 22 22 23 25 25 24 24 22 19 16 14 14 14 11 9 8 5 4 4
10 10 10 10 10 10 11 12 12 14 17 19 20 20 19 19 21 23 24 25 25 26 25 23 23 25 24 25 26 25 22 19 15 14 14 13 10 8 6 4 4 3
15 14 14 13 12 12 12 11 12 13 15 18 21 22 22 21 21 23 25 26 28 28 27 26 27 27 26 27 27 25 22 18 15 14 13 11 9 6 5 4 3 3

ECMWFNIL_850_spd_015.txt.gz
Wind_Speed
9 8 9 9 8 7 7 6 7 8 7 8 7 7 6 6 7 7 7 7 8 10 10 8 8 8 8 10 10 8 9 10 10 9 9 9 9 8 8 8 7 6
10 9 10 10 9 8 9 9 8 8 8 8 8 7 7 8 8 7 7 7 8 11 11 9 9 9 8 9 10 8 9 10 10 9 9 9 8 8 8 8 9 8
12 11 9 9 10 9 10 11 11 10 10 10 9 9 9 9 9 8 8 9 9 11 12 11 10 9 8 9 10 8 9 11 11 10 10 9 9 9 9 9 10 9
13 12 10 9 9 9 10 12 13 14 14 13 12 12 13 12 10 9 9 9 10 10 11 12 11 10 9 9 9 9 10 10 11 11 11 11 11 11 11 11 10 9
13 13 11 9 9 10 10 11 12 13 14 14 13 13 15 14 11 9 9 9 9 10 10 11 11 11 10 10 9 10 10 10 11 12 12 13 13 12 12 12 12 10
15 13 11 10 10 11 11 10 9 10 12 14 13 13 14 13 10 9 9 8 8 9 10 10 11 11 11 11 11 10 9 10 12 12 12 13 12 11 11 11 11 10
16 14 12 12 12 11 9 9 10 10 11 13 14 13 13 12 10 9 9 9 8 9 9 10 12 13 12 12 12 12 11 12 12 11 10 11 12 11 10 10 8 7
15 15 14 14 14 11 8 9 10 10 11 12 13 12 11 10 10 10 9 9 9 9 9 10 11 13 12 11 12 14 15 14 11 9 10 11 11 10 8 9 8 6
12 13 14 15 16 14 12 12 11 10 10 11 11 11 11 10 11 11 11 10 10 10 10 10 11 12 12 11 12 14 15 14 12 9 10 10 9 8 7 8 8 6
11 12 13 15 16 16 14 14 13 11 10 11 11 10 11 11 11 11 12 12 12 12 12 12 12 13 13 12 12 12 11 12 12 10 10 9 8 7 6 6 7 6
11 12 13 14 14 14 12 14 16 14 11 11 11 11 11 11 11 11 12 13 13 12 13 13 13 15 14 13 14 14 12 12 11 10 10 9 8 8 7 6 6 6
10 11 11 12 13 12 12 14 16 15 13 12 12 11 12 12 12 11 11 12 12 12 12 12 13 14 14 13 15 15 14 12 10 9 9 9 8 8 7 7 7 6
10 10 11 11 12 12 12 13 14 14 14 13 12 12 12 12 12 12 12 12 12 13 13 13 13 13 13 13 13 13 12 11 10 10 9 8 8 7 7 7 7 8
9 10 10 11 12 11 11 11 12 13 13 14 13 13 13 13 13 13 14 13 14 14 14 15 15 15 15 15 14 14 13 11 11 11 9 8 9 8 8 9 9 9
8 9 10 10 10 10 10 11 12 13 13 14 14 14 15 14 14 14 14 14 15 15 16 16 17 17 17 17 17 16 14 14 13 12 10 9 8 8 11 12 11 11
6 7 8 8 9 10 10 11 12 13 14 15 14 15 16 16 15 15 15 16 16 16 17 18 19 20 19 19 19 19 18 19 19 17 14 13 11 10 12 13 11 12
3 4 6 7 8 10 10 11 13 14 15 15 15 15 16 16 16 16 17 18 18 18 19 22 23 23 21 20 22 22 22 21 22 21 18 15 13 11 11 11 11 10
1 2 3 5 7 9 11 12 14 15 15 15 16 17 17 18 19 19 19 20 20 20 22 25 27 26 23 22 23 24 23 22 23 23 21 18 18 15 12 12 12 10
1 1 2 3 5 7 9 11 13 14 15 16 17 17 18 19 21 22 22 23 23 23 22 24 27 28 25 24 24 24 24 24 24 24 23 23 23 20 18 17 15 14
4 3 3 3 4 5 6 9 11 12 14 15 16 17 18 19 20 21 23 25 26 26 25 24 26 28 27 25 24 24 24 25 26 24 23 23 23 24 25 23 18 17
6 5 4 4 4 4 6 8 9 11 13 14 16 17 18 21 22 22 23 26 29 31 30 28 27 27 27 26 26 25 25 26 27 25 23 20 20 23 25 22 19 17
6 6 6 5 5 5 6 8 9 11 12 13 15 16 17 20 23 23 24 25 27 29 29 29 28 27 27 29 28 27 27 27 25 25 24 21 19 20 18 16 15 13
6 6 6 6 6 6 7 8 9 11 12 12 13 14 16 18 21 22 22 22 24 25 26 29 31 29 29 30 29 28 29 27 24 24 23 21 18 16 15 16 15 12
7 7 7 7 7 7 8 9 9 11 12 12 13 14 16 18 20 22 21 20 21 23 26 28 29 27 27 27 26 28 29 26 24 23 21 20 18 17 17 17 15 14
10 10 10 10 9 9 8 9 10 11 12 13 14 15 16 17 19 21 21 20 21 23 25 26 25 25 25 24 23 25 28 27 25 23 22 21 20 19 18 17 15 15
11 11 12 14 15 15 14 13 12 12 12 13 14 15 16 17 18 19 20 21 22 24 27 27 25 25 26 25 23 25 30 29 24 23 25 22 19 19 19 18 16 15

ECMWFNIL_850_spd_021.txt.gz
Wind_Speed
15 13 12 12 12 10 8 8 9 9 8 6 7 7 4 6 10 9 9 8 6 6 8 10 11 10 10 10 10 11 11 12 14 16 18 19 19 17 16 15 14 14
15 14 13 11 11 10 8 9 10 10 8 8 9 8 5 5 9 9 9 7 5 8 13 13 12 12 12 11 12 12 13 15 17 17 19 20 19 16 16 16 16 16
14 13 12 9 8 8 7 8 9 8 8 9 8 7 5 5 8 9 8 8 7 11 16 14 12 13 12 10 11 13 14 15 17 16 17 18 18 16 16 16 17 16
13 12 10 8 7 7 6 7 7 6 7 8 7 6 5 4 7 9 8 8 10 13 16 15 13 14 12 10 12 14 14 14 15 16 17 18 17 16 16 15 15 16
13 12 10 7 7 6 5 6 6 5 4 6 6 5 4 5 7 8 8 8 10 13 14 14 14 14 12 11 13 14 12 12 13 15 17 19 18 16 15 13 13 16
15 13 10 7 7 6 5 6 6 4 2 3 4 2 3 6 6 6 6 6 9 12 13 13 13 13 11 12 13 13 11 11 12 14 17 18 17 15 14 14 16 16
15 13 9 8 7 5 6 7 6 3 1 1 2 2 4 6 5 5 5 5 8 11 13 13 12 11 11 12 13 12 12 13 15 16 17 17 15 15 17 18 18 18
13 11 9 8 7 6 7 8 5 2 1 2 2 4 7 7 6 5 5 6 8 10 11 12 12 12 13 13 14 14 15 17 18 18 18 17 15 16 18 18 17 16
11 8 8 8 7 8 9 8 4 2 1 1 2 6 8 8 6 5 7 7 6 7 9 12 13 14 14 15 17 16 16 17 17 18 18 17 15 15 16 16 14 13
10 7 8 9 8 9 10 7 3 2 2 2 3 6 9 9 7 7 8 6 4 6 9 12 14 13 14 17 19 17 15 15 15 17 18 16 14 13 13 14 12 11
10 8 8 9 9 9 9 7 4 3 4 4 6 8 10 10 8 8 9 7 5 6 8 11 12 11 12 16 19 17 16 15 14 15 15 14 12 11 10 10 11 10
12 9 8 8 8 8 8 6 4 4 6 7 8 9 10 9 8 9 11 10 7 7 7 8 9 9 10 14 17 17 16 15 14 14 13 12 10 10 9 9 8 9
13 12 10 8 7 7 6 4 3 5 8 9 8 9 9 8 8 9 11 12 11 10 9 8 8 8 10 12 15 16 16 15 14 14 14 13 11 10 9 8 7 8
15 14 12 10 10 10 8 6 4 5 8 10 9 8 9 9 7 8 11 11 11 11 10 10 8 8 10 11 13 14 15 15 15 14 14 15 14 12 11 10 9 9
14 14 13 13 13 13 12 10 9 8 8 10 12 9 10 11 9 8 10 10 9 10 10 9 8 7 9 10 11 13 14 14 15 14 15 16 16 16 14 13 13 12
10 10 11 13 13 14 14 12 11 11 9 11 14 10 8 11 10 8 9 10 9 10 10 10 9 9 9 9 10 12 13 14 16 16 16 17 17 17 17 17 16 15
6 6 7 9 10 10 11 11 11 11 10 12 15 14 10 11 12 11 12 11 10 10 11 12 12 12 12 12 12 12 13 15 17 18 18 19 19 19 20 19 19 18
5 5 6 8 8 7 7 8 9 10 11 12 14 17 16 14 14 14 15 16 14 13 13 14 14 14 15 16 15 15 16 17 19 20 20 20 21 21 21 22 21 20
10 7 6 6 5 4 5 5 4 5 8 9 11 14 16 17 17 17 17 18 18 17 17 18 17 16 17 18 19 19 20 21 22 23 22 21 22 22 23 24 24 23
15 12 10 9 7 5 2 1 2 3 4 5 6 8 10 13 15 17 18 20 20 20 20 21 21 20 19 20 21 22 23 24 24 26 26 25 25 24 24 26 27 26
14 12 10 9 9 8 6 4 2 2 3 4 6 7 9 10 11 13 15 17 20 22 22 23 23 23 23 23 24 25 26 26 27 28 29 29 29 28 27 28 29 28
8 8 7 6 4 3 3 3 2 2 2 3 4 6 8 10 11 12 13 13 15 18 21 24 25 25 25 26 27 28 28 29 30 32 32 33 33 32 31 30 30 28
2 2 3 4 4 5 6 6 6 6 6 7 7 6 7 10 12 13 14 14 14 15 17 20 22 23 24 25 27 29 29 30 32 33 34 35 35 35 34 33 31 30
3 3 3 4 5 7 8 10 10 11 11 11 11 11 12 13 15 16 16 17 17 17 17 18 19 19 19 21 24 26 28 30 31 32 33 35 36 36 35 34 33 32
6 6 7 7 8 10 11 12 12 13 14 14 15 16 16 16 17 17 18 18 19 19 20 20 20 19 18 19 20 22 24 26 27 29 31 33 34 35 35 35 34 33
11 11 11 11 12 13 14 15 16 17 18 18 18 19 19 20 19 19 19 19 19 21 22 23 23 22 21 21 21 21 22 23 24 25 27 29 31 32 34 36 36 37

ECMWFNIL_850_spd_024.txt.gz
Wind_Speed
12 12 12 13 12 10 9 9 8 7 6 4 2 2 1 3 7 9 7 6 5 5 7 9 9 8 8 9 10 9 10 10 10 10 10 12 13 13 14 14 14 13
14 13 12 12 11 9 8 9 7 6 5 3 1 0 2 1 5 8 7 6 5 5 7 8 8 9 10 10 9 10 11 11 12 13 13 15 16 16 16 15 15 14
14 13 12 11 10 8 9 9 8 7 6 3 2 2 2 2 3 5 6 4 5 8 10 9 9 10 9 8 8 9 11 13 16 16 16 16 16 16 16 14 15 13
13 12 12 11 10 9 9 10 10 9 8 5 4 3 3 4 5 6 6 4 8 11 11 9 9 9 8 8 9 11 13 16 18 19 18 17 15 15 15 14 13 12
14 13 12 11 10 10 10 11 10 9 9 6 5 4 4 4 5 6 5 7 11 12 11 10 9 8 7 7 9 12 15 17 18 19 19 18 16 15 15 14 14 13
15 14 13 11 10 10 11 11 10 9 8 6 5 4 4 5 6 6 5 8 13 14 12 11 10 9 7 5 9 12 14 16 17 17 17 17 16 16 16 15 15 15
15 15 13 11 10 10 11 11 9 7 6 6 5 5 6 7 7 6 6 9 13 14 12 12 11 10 8 7 9 11 12 14 16 17 17 17 16 15 15 16 17 18
15 15 14 12 11 11 11 10 9 7 6 5 5 7 8 8 8 8 8 10 12 12 11 11 11 10 10 10 10 10 11 13 16 17 17 16 15 15 15 16 18 20
16 15 14 13 12 11 11 10 8 6 5 5 6 8 9 8 8 9 10 11 12 11 10 10 10 10 11 12 11 12 13 16 17 17 16 15 15 15 16 16 18 20
17 16 15 14 13 11 11 10 8 5 5 6 8 9 9 10 9 10 10 10 10 11 11 10 10 12 13 13 14 15 17 18 18 16 15 14 15 15 15 15 17 18
18 17 16 15 13 12 12 10 7 6 6 8 10 10 11 11 10 9 9 8 7 9 11 12 11 13 15 16 16 17 17 18 18 17 16 16 16 15 14 14 14 16
18 17 17 16 13 12 13 10 7 6 7 9 11 12 12 12 11 9 7 6 5 6 9 11 10 12 16 16 16 17 16 16 17 17 15 15 16 15 15 14 13 14
17 14 13 12 11 12 12 9 6 7 8 10 12 13 12 11 10 9 8 7 6 5 6 7 7 10 15 16 16 16 15 15 16 17 16 15 15 15 15 15 15 14
16 12 9 9 10 12 11 7 7 8 9 11 12 13 11 9 7 8 9 8 7 6 6 5 5 7 13 16 17 16 16 16 16 17 17 17 16 16 16 16 16 16
15 13 11 11 10 10 9 7 7 9 11 12 13 12 11 9 6 6 7 8 9 8 8 7 6 6 8 13 15 17 17 18 18 18 18 18 18 18 17 17 16 16
15 14 14 13 11 10 9 8 7 8 10 12 12 11 9 9 9 7 5 7 9 9 10 10 8 7 7 8 11 14 16 18 19 19 19 20 20 20 20 18 17 17
15 15 16 15 15 14 12 10 9 8 9 10 12 12 9 8 11 11 7 7 9 9 9 11 10 9 9 9 9 11 13 16 18 19 20 21 22 22 22 21 20 19
13 13 13 14 15 14 13 12 11 11 10 10 11 12 9 8 11 13 11 10 11 11 11 12 13 12 13 14 13 13 13 14 15 17 19 21 23 24 24 23 23 22
15 13 13 13 12 12 12 12 11 11 12 12 12 12 11 9 11 13 14 13 14 14 14 15 15 15 16 17 18 19 18 17 17 18 19 20 21 23 24 24 24 24
17 16 15 13 11 11 11 10 9 8 9 10 10 11 11 12 12 14 16 17 18 18 18 19 19 19 18 18 18 20 21 22 22 22 22 22 22 22 23 24 25 25
17 16 15 14 13 12 11 10 9 8 8 8 8 9 10 11 12 13 14 16 18 20 22 23 23 22 22 22 21 21 21 23 25 26 26 26 26 26 26 26 27 27
14 14 13 13 12 12 11 10 9 9 9 10 9 9 9 10 10 10 10 11 12 14 17 20 22 23 24 24 25 24 23 23 26 28 30 30 30 30 30 30 30 31
9 9 8 7 8 8 8 9 8 8 9 10 10 10 10 10 10 10 10 10 10 10 12 14 16 18 21 23 25 26 26 27 28 29 31 32 33 33 33 33 33 34
4 5 4 3 4 5 5 6 7 7 8 9 9 10 11 10 11 11 11 11 12 12 13 14 15 16 17 19 22 24 27 29 30 30 30 30 32 33 34 35 35 36
3 4 6 6 6 7 7 8 9 10 11 11 12 12 13 13 14 14 14 14 14 14 15 16 17 17 16 17 19 21 23 26 29 30 30 30 31 32 33 35 36 37
7 8 9 10 11 11 12 13 14 15 15 16 16 17 17 18 19 20 20 20 19 19 19 18 19 19 19 18 18 19 21 23 25 27 29 29 29 31 32 34 34 35

ECMWFNIL_850_spd_027.txt.gz
Wind_Speed
11 10 9 9 9 8 6 5 4 4 3 2 1 1 2 4 6 5 5 5 5 6 8 8 7 5 3 3 6 8 8 8 8 8 9 9 10 10 9 9 11 13
10 10 11 12 11 9 7 6 5 4 3 2 2 1 1 1 5 6 5 5 5 5 7 8 8 6 5 5 6 7 7 8 7 8 9 10 10 10 10 11 13 14
12 12 13 13 11 9 8 7 6 4 3 1 0 0 1 1 3 5 5 4 4 5 5 6 7 7 6 6 7 7 7 8 8 7 8 10 10 10 11 12 13 13
13 13 13 12 8 7 6 6 5 3 2 1 1 1 2 1 2 4 5 4 5 6 6 6 7 7 7 7 7 8 9 8 8 8 10 11 10 10 11 13 13 12
14 13 12 10 7 6 5 4 4 2 2 3 3 3 3 3 3 4 4 4 6 7 7 7 7 7 7 7 8 8 9 9 10 10 10 11 10 9 10 11 11 10
15 13 12 10 8 7 5 4 4 2 2 3 4 4 4 4 3 4 3 4 8 9 7 7 8 7 6 6 7 8 9 10 11 11 10 10 9 9 10 9 8 7
14 13 12 10 9 8 6 5 4 2 2 3 4 5 4 3 3 3 4 6 9 8 7 7 6 6 5 5 6 9 10 12 12 12 11 11 10 10 11 10 9 8
15 13 12 11 10 8 6 6 5 3 2 3 4 4 2 3 4 3 5 8 10 8 8 7 5 5 4 4 6 9 11 12 13 13 13 12 12 12 12 11 10 9
15 14 13 11 10 8 7 6 5 4 3 3 3 3 4 4 4 4 6 9 10 9 8 8 7 7 6 5 7 8 10 12 13 13 13 13 13 13 13 13 12 12
16 15 14 11 9 8 6 6 6 4 3 3 4 4 5 5 5 5 6 9 10 9 8 8 8 8 7 7 8 8 9 11 13 13 12 12 12 12 13 14 15 15
16 15 14 11 9 7 6 7 7 5 4 4 6 6 7 7 7 7 6 6 8 8 8 7 7 8 9 9 10 10 11 12 13 12 11 10 10 10 10 12 15 17
15 14 14 12 10 8 7 8 7 5 4 5 7 7 7 8 8 7 7 5 4 6 7 7 7 8 10 10 11 11 12 13 13 12 12 11 10 10 9 10 12 14
17 17 16 14 12 10 9 9 7 5 5 7 9 8 8 7 7 5 5 4 3 3 5 7 8 9 11 11 12 12 13 13 13 13 12 11 11 11 10 10 9 11
19 19 17 15 13 11 11 9 7 6 7 8 10 9 8 6 6 5 4 4 3 2 3 4 6 9 11 12 13 13 13 13 13 12 12 12 12 12 12 11 10 10
18 16 14 14 14 13 12 10 8 8 9 11 11 11 8 7 6 6 5 5 4 4 3 3 3 5 8 11 13 14 13 13 13 13 13 13 13 14 14 13 12 12
16 14 14 16 16 15 13 12 10 9 10 12 12 12 10 9 8 7 6 6 6 6 6 5 3 2 4 7 10 12 13 14 14 14 14 14 14 14 15 15 15 15
17 16 16 16 16 15 14 14 13 12 11 11 12 12 11 11 10 8 8 8 7 7 7 6 5 3 3 4 6 8 11 13 14 15 16 16 17 17 17 17 17 17
19 19 17 16 16 16 16 15 15 15 14 12 12 12 13 12 10 11 11 11 10 9 9 8 7 6 7 7 7 8 9 10 12 14 16 18 19 20 20 20 20 20
19 19 18 17 18 18 18 17 17 16 16 16 14 13 14 13 10 11 13 15 14 13 13 13 12 12 12 12 12 12 13 13 13 14 14 15 17 18 20 21 22 23
15 15 15 16 16 16 16 17 16 16 16 16 15 14 14 14 12 13 15 17 17 17 16 16 16 16 15 15 15 15 16 17 18 18 19 18 17 18 18 20 21 22
16 14 15 15 14 13 14 15 15 15 14 14 14 15 15 16 15 16 17 18 19 19 19 18 17 17 17 16 17 16 17 18 19 21 22 23 23 23 22 22 22 22
17 16 17 17 16 15 15 14 13 13 13 14 15 15 16 16 17 17 18 18 20 21 21 21 20 20 19 19 19 18 19 19 20 21 22 24 25 26 27 27 27 27
13 13 13 12 12 11 11 12 12 11 12 13 14 15 15 15 16 17 17 18 19 21 23 24 24 24 25 25 24 23 23 22 22 23 24 25 26 27 28 30 31 31
5 5 5 4 5 5 5 7 9 10 11 13 13 14 14 15 15 15 16 17 17 18 20 21 22 23 24 26 27 28 27 26 25 24 25 27 28 29 29 30 31 32
2 1 3 4 5 6 6 5 5 6 9 11 13 14 14 15 16 16 16 17 17 18 19 20 21 21 22 24 25 27 28 29 28 27 26 27 29 30 31 30 30 31
6 4 4 5 6 8 9 9 10 11 11 12 14 15 16 17 18 19 19 20 21 21 22 23 24 24 24 25 25 25 26 28 28 28 28 27 27 29 30 30 29 29

ECMWFNIL_850_spd_030.txt.gz
Wind_Speed
13 10 9 8 7 6 6 6 5 4 4 4 4 3 2 1 1 2 3 4 5 7 7 6 6 6 4 4 8 10 10 9 9 9 8 8 9 10 11 11 11 12
13 10 9 8 8 7 6 6 4 3 3 3 3 3 2 1 2 3 4 4 5 6 6 7 7 6 4 3 6 10 9 9 9 9 8 8 9 10 10 10 11 13
12 11 11 10 9 8 7 6 4 4 4 3 2 2 2 2 2 3 4 5 4 5 6 7 7 6 5 4 6 8 8 8 8 8 8 9 9 9 9 9 11 14
12 11 12 11 10 8 8 7 5 5 4 2 1 1 2 2 2 2 3 3 3 4 5 5 5 5 4 4 5 5 5 6 5 6 8 9 8 8 8 9 10 12
12 11 12 12 10 9 9 8 6 5 4 2 1 1 1 2 2 2 3 3 3 5 6 5 6 5 5 5 4 3 3 4 4 6 8 8 7 6 7 8 8 8
12 11 12 12 11 10 9 8 6 4 3 2 0 1 1 1 1 2 3 4 6 7 7 6 7 7 6 6 5 5 4 5 6 7 8 7 7 7 8 9 8 8
14 13 13 12 10 9 8 7 6 5 3 3 1 1 1 1 2 3 4 6 8 8 8 8 8 8 7 6 5 5 6 6 7 7 7 6 7 7 8 9 8 6
16 15 14 13 11 9 8 7 7 5 3 2 2 2 2 3 4 4 5 7 9 8 8 9 8 7 7 5 5 5 6 7 7 6 5 5 6 6 7 6 5 4
17 16 15 13 11 9 7 7 7 5 3 2 2 3 4 6 5 5 6 8 9 9 8 7 6 5 5 4 4 4 5 7 7 6 5 4 4 4 5 5 4 4
18 17 16 13 11 9 7 7 7 6 4 3 3 5 6 6 5 5 5 7 9 9 7 6 5 4 3 4 5 5 5 7 8 8 7 6 5 5 5 6 6 6
17 16 15 12 9 7 6 7 7 6 5 5 5 6 7 6 5 5 5 7 9 8 7 5 4 4 4 4 5 6 6 7 8 9 9 9 8 8 8 9 9 8
17 15 15 12 9 7 6 6 8 7 5 6 6 7 7 7 7 7 6 6 7 7 6 5 4 4 4 5 6 7 7 7 9 10 10 9 8 7 7 8 10 10
19 17 15 13 10 8 6 7 8 8 6 7 8 8 9 9 9 8 8 7 6 5 5 5 4 4 4 5 6 6 6 7 9 9 9 8 7 6 5 6 8 11
20 17 13 12 12 9 7 7 9 9 7 8 9 9 9 9 8 7 7 7 7 6 5 5 4 3 4 4 5 6 6 7 8 9 9 8 7 7 6 6 7 9
21 20 16 13 11 10 10 11 10 9 9 10 10 10 10 8 6 5 5 6 6 6 6 6 5 3 2 4 5 5 6 7 8 9 9 8 8 8 8 8 8 8
23 23 19 14 12 11 12 13 12 11 11 11 12 11 9 8 6 5 4 4 4 4 5 5 6 5 3 2 3 5 6 7 7 7 8 8 8 9 9 9 9 10
24 22 19 15 14 15 15 14 13 13 13 12 13 13 11 9 7 6 6 5 4 3 3 4 5 5 4 3 3 3 5 7 7 8 8 9 9 10 10 10 11 11
22 21 19 18 18 17 16 14 13 13 13 13 14 14 13 11 9 8 8 7 6 5 4 4 4 3 3 2 2 3 4 5 6 7 8 9 10 10 11 11 12 13
19 19 19 20 20 18 17 15 14 14 14 14 14 14 13 12 11 10 9 8 8 8 7 7 7 7 7 7 7 7 7 7 7 8 9 9 10 11 11 11 12 13
17 16 17 18 18 17 17 16 14 14 14 13 13 13 12 13 13 12 10 9 10 10 10 11 11 11 12 12 12 12 11 11 11 12 12 13 13 13 14 14 14 14
16 16 16 16 15 15 17 17 15 14 14 13 13 13 12 12 12 12 11 10 11 12 12 13 13 14 14 14 15 15 14 14 14 15 15 16 16 17 18 18 19 19
14 15 15 14 13 12 13 14 14 13 13 12 12 13 13 12 12 12 11 11 11 12 13 14 15 15 16 16 17 17 17 17 18 18 19 19 19 19 20 21 22 23
13 12 12 12 10 9 10 11 11 11 11 10 10 11 12 11 11 11 11 11 11 11 12 14 15 17 18 19 20 20 21 21 22 23 24 25 25 24 24 24 24 25
10 9 8 6 4 4 5 6 6 6 7 7 7 8 9 9 9 9 10 11 11 12 12 13 15 17 18 20 21 22 23 24 25 26 27 28 28 29 29 29 29 29
7 6 4 2 2 1 3 4 5 5 5 3 2 4 5 7 8 9 10 11 12 13 13 14 15 16 17 18 20 21 22 23 24 26 27 27 29 30 30 30 31 31
3 3 3 4 4 2 4 5 5 7 8 8 9 9 7 7 9 10 11 12 13 15 15 16 17 17 18 19 20 21 23 24 25 27 28 29 30 31 32 32 31 31

ECMWFNIL_850_spd_033.txt.gz
Wind_Speed
17 16 17 18 17 16 15 14 12 12 11 11 10 8 7 7 7 6 6 7 8 9 9 9 9 9 8 8 8 9 10 10 10 8 8 8 10 11 11 11 11 10
18 17 17 18 17 16 14 12 12 11 11 10 9 7 6 7 7 7 7 7 9 9 10 9 9 8 7 7 8 9 9 9 9 9 9 9 10 10 11 11 10 10
18 17 17 17 16 15 14 13 12 11 10 9 8 6 5 7 7 7 7 8 9 10 11 10 9 9 7 6 8 10 11 10 9 10 9 9 9 9 10 10 10 10
18 17 16 15 14 13 14 13 12 12 10 8 7 5 5 7 8 7 7 8 8 9 10 10 11 10 9 8 8 10 11 10 10 10 10 9 8 8 8 9 9 10
18 17 15 14 13 13 13 12 11 11 10 8 6 5 6 8 8 7 6 6 7 8 8 9 11 10 10 10 9 9 10 10 10 10 9 8 7 7 7 7 7 8
16 15 14 12 11 12 12 11 11 10 8 7 5 4 5 7 8 7 6 6 8 9 8 8 10 10 11 11 10 10 10 10 10 9 9 8 7 7 8 8 7 7
15 13 12 11 11 11 11 11 10 9 7 6 5 4 4 6 7 7 7 9 11 10 8 9 9 9 10 10 9 9 10 10 10 10 9 9 9 10 10 10 9 8
14 13 12 11 11 11 11 10 10 8 7 6 4 3 3 5 6 6 8 11 12 11 10 10 10 9 9 9 9 10 11 12 12 11 11 11 11 11 11 10 9 8
15 13 13 13 12 11 11 10 9 8 7 5 3 2 3 5 6 6 9 12 12 11 11 10 10 10 10 10 10 11 12 12 12 12 11 11 11 10 10 9 8 8
16 14 15 14 12 11 10 10 10 9 7 5 3 3 4 5 5 6 9 12 12 11 11 10 9 9 9 10 10 11 11 12 12 12 11 10 9 8 8 7 6 6
17 15 15 14 12 10 10 10 10 9 7 4 3 4 5 5 5 6 8 12 13 12 10 9 9 8 8 9 10 11 11 11 11 11 10 9 8 7 7 6 6 5
18 16 16 15 13 11 11 11 10 8 6 4 4 5 5 5 6 6 7 10 12 12 10 9 8 8 8 9 10 10 10 11 11 11 10 9 9 8 7 7 7 6
18 17 16 16 14 12 12 11 10 8 6 5 6 6 6 7 8 8 8 9 10 10 10 8 7 7 7 8 9 9 9 10 11 12 11 10 10 9 8 8 8 9
18 17 17 16 15 14 13 11 10 9 8 7 8 9 9 10 9 9 8 8 8 8 8 7 7 6 6 6 7 7 7 9 11 12 12 11 10 9 8 8 9 11
20 20 18 17 16 14 12 11 11 10 9 10 11 12 12 11 9 8 8 7 8 8 8 8 7 6 6 6 6 5 5 7 9 11 11 10 9 9 8 8 8 10
23 21 20 18 15 12 10 11 11 11 11 12 14 14 13 11 9 8 8 8 8 8 8 9 8 8 7 7 7 7 6 6 8 9 9 9 8 8 8 7 7 8
23 21 20 21 20 15 12 13 14 13 13 14 15 15 14 12 10 9 9 9 9 9 9 9 9 9 9 8 9 9 8 7 8 8 8 7 7 6 6 7 7 8
23 22 20 20 20 16 13 15 16 16 15 15 16 16 14 12 10 8 9 9 9 9 9 10 9 9 9 8 8 9 9 9 9 9 9 9 9 8 8 8 9 9
21 21 21 19 17 16 15 15 16 16 15 15 16 15 14 13 10 8 8 9 9 9 9 9 9 9 8 8 8 8 8 9 9 9 10 10 10 10 11 11 11 11
19 18 18 18 17 16 16 16 16 16 16 15 14 13 13 12 11 9 9 9 10 10 10 10 9 9 9 9 8 8 8 8 9 9 9 10 10 11 11 12 12 13
16 15 16 17 17 17 17 17 16 16 15 15 14 13 12 11 10 9 9 10 11 11 12 12 11 11 11 10 10 10 10 9 10 10 10 10 11 11 12 13 13 14
15 15 15 16 16 16 16 16 16 15 15 14 13 13 12 10 10 9 9 9 9 10 11 12 12 12 12 12 11 11 11 11 11 12 12 12 13 13 14 15 15 16
16 15 15 14 13 13 14 14 14 14 15 14 13 14 13 12 11 9 8 7 7 8 9 10 11 11 12 13 13 14 14 14 15 15 16 16 17 18 18 19 19 20
14 13 13 12 11 11 12 12 10 9 11 12 12 12 12 12 10 9 8 7 7 7 9 10 11 12 13 14 15 16 17 18 18 19 20 20 21 21 22 22 23 23
10 9 9 8 8 8 8 7 5 5 7 8 7 7 8 8 8 8 9 8 7 7 8 10 12 14 15 15 16 17 18 18 19 19 20 20 21 21 21 22 22 23
8 6 5 4 4 4 4 3 2 3 4 5 5 6 7 8 9 9 8 7 6 6 8 11 13 14 15 16 17 17 18 19 19 20 21 22 22 23 23 23 24 24